Abilene Regional Airport Abilene US
ICAO: KABI
IATA: ABI
Category: Medium
Scheduled Services: Yes

Elevation: 1791 ft
TransAlt. 18000 ft.

Airport Communications:
APP/DEP:125
ATIS:118.25
GND:121.7
FORT WORTH RDO:122.65
TWR:120.1
UNICOM:122.95

KABI Zoom In..

If you have problems with the map follow the link
https://www.worldairports.se/pages/airport.php?
ICAO=KABI

Runways:

(A) RW 04 length 3679 ft width 100 ft
LOC 109.75 / hdg 44

(B) RW 17L length 7198 ft width 150 ft
LOC 109.75 / hdg 172

(C) RW 17R length 7203 ft width 150 ft
LOC 109.75 / hdg 172

(D) RW 22 length 3679 ft width 100 ft
LOC 109.75 / hdg 224

(E) RW 35L length 7203 ft width 150 ft
LOC 109.75 / hdg 352

(F) RW 35R length 7198 ft width 150 ft
ILS 110.30 / hdg 352

Location; KABI
Day. 20 / Time. 20.52 Zulu
* Altimeter: 29.89
* Temperature: 13° c. 55.4°f.
* Wind from: 260° Speed 07 kn.
Dewpoint: -08° c.
Visibility: 10 Statute Miles.
Clouds: Clear (automated report).

KABI 202052Z 26007KT 10SM CLR 13/M08 A2989 RMK AO2 SLP117 T01331078 58023


Wind From 260°
Speed 07 kn.

 
 
jpsmedia.com for Web Design worldairports.se 2019   terms of use